JST476 YMML-YWLM

Flight info

Callsign JST476
Flight time 1h 14m
Altitude 37000
Route ML H129 DOSEL Y59 TESAT H252 EKIPU DCT WLM
Aircraft A320/M-SDE3FGHIRWY/LB1

Departure

Time 2026-04-20 05:55
Airport Melbourne Airport (YMML)

Arrival

Time 2026-04-20 07:09
Airport Newcastle Airport (YWLM)
Time Latitude Longitude Altitude Speed Heading
2026-04-20 05:38 -37.67650 144.84666 374 ft 0 kts 37°
2026-04-20 05:43 -37.67654 144.84663 374 ft 2 kts 37°
2026-04-20 05:43 -37.67669 144.84649 373 ft 3 kts 36°
2026-04-20 05:43 -37.67686 144.84634 373 ft 3 kts 34°
2026-04-20 05:43 -37.67702 144.84620 372 ft 3 kts 32°
2026-04-20 05:44 -37.67720 144.84607 371 ft 3 kts 28°
2026-04-20 05:44 -37.67738 144.84596 370 ft 3 kts 19°
2026-04-20 05:44 -37.67757 144.84590 369 ft 3 kts 357°
2026-04-20 05:44 -37.67776 144.84593 368 ft 3 kts 352°
2026-04-20 05:45 -37.67797 144.84597 368 ft 3 kts 352°
2026-04-20 05:45 -37.67817 144.84600 366 ft 3 kts 352°
2026-04-20 05:45 -37.67836 144.84604 365 ft 3 kts 352°
2026-04-20 05:45 -37.67857 144.84608 365 ft 3 kts 352°
2026-04-20 05:46 -37.67877 144.84612 363 ft 3 kts 352°
2026-04-20 05:46 -37.67890 144.84614 363 ft 1 kts 352°
2026-04-20 05:46 -37.67890 144.84615 363 ft 0 kts 352°
2026-04-20 05:47 -37.67890 144.84614 362 ft 0 kts 352°
2026-04-20 05:48 -37.67888 144.84614 362 ft 2 kts 352°
2026-04-20 05:48 -37.67825 144.84602 367 ft 16 kts 352°
2026-04-20 05:49 -37.67674 144.84572 372 ft 27 kts 352°
2026-04-20 05:49 -37.67510 144.84541 378 ft 19 kts 343°
2026-04-20 05:49 -37.67473 144.84406 377 ft 19 kts 259°
2026-04-20 05:49 -37.67410 144.84307 377 ft 16 kts 352°
2026-04-20 05:50 -37.67287 144.84285 380 ft 21 kts 352°
2026-04-20 05:50 -37.67124 144.84252 383 ft 26 kts 351°
2026-04-20 05:50 -37.66947 144.84219 387 ft 26 kts 352°
2026-04-20 05:50 -37.66771 144.84189 393 ft 25 kts 351°
2026-04-20 05:51 -37.66603 144.84156 400 ft 24 kts 351°
2026-04-20 05:51 -37.66446 144.84126 406 ft 22 kts 352°
2026-04-20 05:51 -37.66297 144.84102 411 ft 21 kts 352°
2026-04-20 05:51 -37.66148 144.84072 413 ft 22 kts 349°
2026-04-20 05:52 -37.66001 144.84042 414 ft 22 kts 353°
2026-04-20 05:52 -37.65850 144.84019 415 ft 22 kts 348°
2026-04-20 05:52 -37.65698 144.83987 411 ft 23 kts 354°
2026-04-20 05:52 -37.65539 144.83962 419 ft 23 kts 349°
2026-04-20 05:53 -37.65383 144.83920 420 ft 23 kts 341°
2026-04-20 05:53 -37.65293 144.83780 431 ft 21 kts 274°
2026-04-20 05:53 -37.65319 144.83603 438 ft 21 kts 258°
2026-04-20 05:53 -37.65342 144.83503 434 ft 9 kts 223°
2026-04-20 05:54 -37.65428 144.83511 431 ft 27 kts 170°
2026-04-20 05:54 -37.65861 144.83591 418 ft 95 kts 171°
2026-04-20 05:54 -37.66686 144.83745 392 ft 143 kts 172°
2026-04-20 05:54 -37.67764 144.83949 681 ft 161 kts 170°
2026-04-20 05:55 -37.68874 144.84163 1355 ft 161 kts 171°
2026-04-20 05:55 -37.69981 144.84370 1994 ft 160 kts 172°
2026-04-20 05:55 -37.71092 144.84577 2583 ft 165 kts 171°
2026-04-20 05:55 -37.72295 144.84800 2874 ft 185 kts 172°
2026-04-20 05:56 -37.73655 144.84882 3068 ft 210 kts 194°
2026-04-20 05:56 -37.74895 144.83807 3379 ft 232 kts 237°
2026-04-20 05:56 -37.75380 144.81792 3782 ft 253 kts 268°
2026-04-20 05:56 -37.75299 144.79549 4580 ft 259 kts 277°
2026-04-20 05:57 -37.74839 144.77364 5462 ft 260 kts 298°
2026-04-20 05:57 -37.73755 144.75558 6292 ft 265 kts 315°
2026-04-20 05:57 -37.72245 144.74206 7143 ft 270 kts 332°
2026-04-20 05:57 -37.70425 144.73552 7911 ft 278 kts 354°
2026-04-20 05:58 -37.68487 144.73864 8658 ft 287 kts 18°
2026-04-20 05:58 -37.66602 144.74766 9408 ft 293 kts 20°
2026-04-20 05:58 -37.64688 144.75711 10158 ft 298 kts 20°
2026-04-20 05:58 -37.62731 144.76682 10672 ft 311 kts 20°
2026-04-20 05:59 -37.60643 144.77717 10869 ft 334 kts 20°
2026-04-20 05:59 -37.58432 144.78809 11273 ft 346 kts 20°
2026-04-20 05:59 -37.56236 144.80118 11888 ft 353 kts 30°
2026-04-20 05:59 -37.54215 144.81908 12529 ft 357 kts 36°
2026-04-20 06:00 -37.52205 144.83783 13174 ft 362 kts 36°
2026-04-20 06:00 -37.50166 144.85676 13804 ft 366 kts 36°
2026-04-20 06:00 -37.48127 144.87559 14379 ft 371 kts 36°
2026-04-20 06:00 -37.46035 144.89488 14929 ft 375 kts 36°
2026-04-20 06:01 -37.44005 144.91566 15468 ft 379 kts 44°
2026-04-20 06:01 -37.42287 144.94094 16016 ft 382 kts 55°
2026-04-20 06:01 -37.40755 144.96837 16566 ft 385 kts 55°
2026-04-20 06:01 -37.39199 144.99603 17123 ft 389 kts 56°
2026-04-20 06:02 -37.37626 145.02385 17687 ft 392 kts 56°
2026-04-20 06:02 -37.36038 145.05190 18226 ft 396 kts 56°
2026-04-20 06:02 -37.34433 145.08024 18739 ft 400 kts 56°
2026-04-20 06:02 -37.32816 145.10879 19232 ft 402 kts 56°
2026-04-20 06:03 -37.31185 145.13753 19745 ft 405 kts 56°
2026-04-20 06:03 -37.29540 145.16644 20262 ft 408 kts 56°
2026-04-20 06:03 -37.27909 145.19512 20761 ft 411 kts 56°
2026-04-20 06:03 -37.26245 145.22444 21247 ft 413 kts 57°
2026-04-20 06:04 -37.24570 145.25395 21725 ft 416 kts 57°
2026-04-20 06:04 -37.22884 145.28364 22213 ft 419 kts 57°
2026-04-20 06:04 -37.21187 145.31345 22666 ft 422 kts 57°
2026-04-20 06:04 -37.19474 145.34348 23108 ft 424 kts 57°
2026-04-20 06:05 -37.17750 145.37366 23566 ft 427 kts 57°
2026-04-20 06:05 -37.16017 145.40400 23983 ft 430 kts 57°
2026-04-20 06:05 -37.14271 145.43452 24347 ft 432 kts 57°
2026-04-20 06:05 -37.12508 145.46525 24724 ft 435 kts 57°
2026-04-20 06:06 -37.10737 145.49612 25087 ft 438 kts 57°
2026-04-20 06:06 -37.08978 145.52675 25450 ft 440 kts 58°
2026-04-20 06:06 -37.07181 145.55799 25803 ft 443 kts 57°
2026-04-20 06:06 -37.05373 145.58939 26151 ft 446 kts 57°
2026-04-20 06:07 -37.03552 145.62100 26503 ft 449 kts 57°
2026-04-20 06:07 -37.01720 145.65279 26835 ft 452 kts 57°
2026-04-20 06:07 -36.99879 145.68475 27189 ft 454 kts 57°
2026-04-20 06:07 -36.98029 145.71686 27519 ft 456 kts 57°
2026-04-20 06:08 -36.96167 145.74911 27857 ft 459 kts 57°
2026-04-20 06:08 -36.94289 145.78157 28201 ft 462 kts 57°
2026-04-20 06:08 -36.92401 145.81420 28545 ft 465 kts 57°
2026-04-20 06:08 -36.90529 145.84654 28871 ft 467 kts 58°
2026-04-20 06:09 -36.88620 145.87958 29209 ft 470 kts 57°
2026-04-20 06:09 -36.86698 145.91272 29543 ft 473 kts 57°
2026-04-20 06:09 -36.84761 145.94599 29894 ft 475 kts 57°
2026-04-20 06:09 -36.82809 145.97946 30208 ft 478 kts 57°
2026-04-20 06:10 -36.80846 146.01307 30486 ft 480 kts 57°
2026-04-20 06:10 -36.78878 146.04670 30884 ft 480 kts 57°
2026-04-20 06:10 -36.76912 146.08029 31270 ft 479 kts 57°
2026-04-20 06:10 -36.74950 146.11384 31652 ft 478 kts 58°
2026-04-20 06:11 -36.72991 146.14732 32049 ft 478 kts 58°
2026-04-20 06:11 -36.71061 146.18033 32447 ft 477 kts 58°
2026-04-20 06:11 -36.69111 146.21370 32837 ft 477 kts 58°
2026-04-20 06:11 -36.67159 146.24706 33228 ft 476 kts 58°
2026-04-20 06:12 -36.65205 146.28036 33624 ft 476 kts 58°
2026-04-20 06:12 -36.63253 146.31360 34041 ft 475 kts 58°
2026-04-20 06:12 -36.61302 146.34677 34440 ft 474 kts 58°
2026-04-20 06:12 -36.59351 146.37984 34775 ft 474 kts 58°
2026-04-20 06:13 -36.57427 146.41243 35085 ft 473 kts 58°
2026-04-20 06:13 -36.55480 146.44545 35384 ft 473 kts 58°
2026-04-20 06:13 -36.53535 146.47845 35669 ft 473 kts 58°
2026-04-20 06:13 -36.51593 146.51140 35963 ft 473 kts 58°
2026-04-20 06:14 -36.49646 146.54433 36245 ft 473 kts 58°
2026-04-20 06:14 -36.48352 146.56614 36426 ft 473 kts 58°
2026-04-20 06:14 -36.45741 146.61007 36811 ft 472 kts 58°
2026-04-20 06:14 -36.44449 146.63179 36991 ft 472 kts 58°
2026-04-20 06:15 -36.42499 146.66460 37214 ft 473 kts 58°
2026-04-20 06:15 -36.39906 146.70831 37276 ft 478 kts 58°
2026-04-20 06:15 -36.35951 146.77487 37268 ft 480 kts 58°
2026-04-20 06:16 -36.31977 146.84141 37268 ft 480 kts 58°
2026-04-20 06:16 -36.27997 146.90784 37270 ft 480 kts 58°
2026-04-20 06:17 -36.24042 146.97383 37270 ft 480 kts 58°
2026-04-20 06:17 -36.20060 147.04024 37269 ft 480 kts 58°
2026-04-20 06:18 -36.16066 147.10662 37281 ft 481 kts 58°
2026-04-20 06:18 -36.12742 147.16176 37296 ft 481 kts 58°
2026-04-20 06:19 -36.08740 147.22809 37287 ft 481 kts 58°
2026-04-20 06:19 -36.04743 147.29431 37284 ft 480 kts 58°
2026-04-20 06:20 -36.00091 147.37115 37288 ft 481 kts 58°
2026-04-20 06:20 -35.96762 147.42599 37296 ft 481 kts 58°
2026-04-20 06:21 -35.92744 147.49204 37291 ft 481 kts 58°
2026-04-20 06:21 -35.88727 147.55798 37287 ft 481 kts 58°
2026-04-20 06:22 -35.84730 147.62339 37284 ft 481 kts 58°
2026-04-20 06:22 -35.80704 147.68912 37292 ft 481 kts 58°
2026-04-20 06:23 -35.76675 147.75492 37290 ft 481 kts 58°
2026-04-20 06:23 -35.71993 147.83129 37284 ft 481 kts 58°
2026-04-20 06:24 -35.68609 147.88631 37287 ft 481 kts 58°
2026-04-20 06:24 -35.64590 147.95150 37300 ft 482 kts 58°
2026-04-20 06:25 -35.60539 148.01708 37290 ft 481 kts 58°
2026-04-20 06:25 -35.56487 148.08254 37285 ft 481 kts 58°
2026-04-20 06:26 -35.52429 148.14799 37291 ft 482 kts 58°
2026-04-20 06:26 -35.48370 148.21339 37305 ft 482 kts 58°
2026-04-20 06:27 -35.44331 148.27835 37300 ft 482 kts 58°
2026-04-20 06:27 -35.40268 148.34357 37296 ft 481 kts 58°
2026-04-20 06:28 -35.36200 148.40872 37302 ft 481 kts 58°
2026-04-20 06:28 -35.32133 148.47376 37291 ft 481 kts 58°
2026-04-20 06:29 -35.28058 148.53874 37305 ft 481 kts 58°
2026-04-20 06:29 -35.24015 148.60320 37297 ft 481 kts 58°
2026-04-20 06:30 -35.19943 148.66806 37291 ft 480 kts 58°
2026-04-20 06:30 -35.15864 148.73270 37293 ft 481 kts 58°
2026-04-20 06:31 -35.11774 148.79728 37305 ft 481 kts 58°
2026-04-20 06:31 -35.07689 148.86186 37299 ft 480 kts 58°
2026-04-20 06:32 -35.03665 148.92546 37300 ft 480 kts 58°
2026-04-20 06:32 -34.99577 148.98993 37301 ft 480 kts 58°
2026-04-20 06:33 -34.95487 149.05424 37324 ft 480 kts 58°
2026-04-20 06:33 -34.91388 149.11845 37311 ft 480 kts 58°
2026-04-20 06:34 -34.87307 149.18214 37308 ft 480 kts 58°
2026-04-20 06:35 -34.81173 149.27825 37314 ft 479 kts 58°
2026-04-20 06:35 -34.77073 149.34211 37305 ft 479 kts 58°
2026-04-20 06:36 -34.73229 149.40763 37304 ft 469 kts 69°
2026-04-20 06:36 -34.70223 149.47724 37305 ft 468 kts 69°
2026-04-20 06:37 -34.67169 149.54714 37311 ft 468 kts 69°
2026-04-20 06:37 -34.64110 149.61690 37341 ft 468 kts 69°
2026-04-20 06:38 -34.61049 149.68664 37315 ft 468 kts 69°
2026-04-20 06:38 -34.57991 149.75635 37307 ft 468 kts 69°
2026-04-20 06:39 -34.54951 149.82550 37306 ft 467 kts 69°
2026-04-20 06:39 -34.51883 149.89502 37343 ft 468 kts 69°
2026-04-20 06:40 -34.48813 149.96458 37336 ft 468 kts 69°
2026-04-20 06:40 -34.45738 150.03410 37330 ft 468 kts 69°
2026-04-20 06:41 -34.42654 150.10357 37323 ft 468 kts 69°
2026-04-20 06:41 -34.39587 150.17258 37329 ft 469 kts 69°
2026-04-20 06:42 -34.36495 150.24205 37334 ft 469 kts 69°
2026-04-20 06:42 -34.33397 150.31143 37328 ft 468 kts 69°
2026-04-20 06:43 -34.30294 150.38070 37315 ft 468 kts 69°
2026-04-20 06:43 -34.27212 150.44944 37311 ft 468 kts 69°
2026-04-20 06:44 -34.24133 150.51877 37327 ft 468 kts 69°
2026-04-20 06:44 -34.21060 150.58812 37320 ft 469 kts 69°
2026-04-20 06:45 -34.17973 150.65746 37318 ft 468 kts 69°
2026-04-20 06:45 -34.14889 150.72648 37324 ft 466 kts 69°
2026-04-20 06:46 -34.11827 150.79494 36519 ft 472 kts 69°
2026-04-20 06:46 -34.10252 150.83034 35442 ft 484 kts 69°
2026-04-20 06:46 -34.08653 150.86613 34747 ft 483 kts 69°
2026-04-20 06:46 -34.07060 150.90162 33688 ft 482 kts 68°
2026-04-20 06:47 -34.05456 150.93720 33052 ft 481 kts 68°
2026-04-20 06:47 -34.03862 150.97248 32509 ft 477 kts 68°
2026-04-20 06:47 -34.02281 151.00748 31979 ft 474 kts 68°
2026-04-20 06:47 -34.00716 151.04221 31445 ft 470 kts 68°
2026-04-20 06:48 -33.99180 151.07628 30952 ft 467 kts 68°
2026-04-20 06:48 -33.97634 151.11053 30433 ft 464 kts 67°
2026-04-20 06:48 -33.96094 151.14453 29854 ft 461 kts 67°
2026-04-20 06:48 -33.94524 151.17801 29282 ft 460 kts 62°
2026-04-20 06:49 -33.92579 151.20864 28736 ft 461 kts 54°
2026-04-20 06:49 -33.90524 151.23808 28194 ft 457 kts 54°
2026-04-20 06:49 -33.88484 151.26716 27675 ft 453 kts 54°
2026-04-20 06:49 -33.86461 151.29598 27162 ft 449 kts 54°
2026-04-20 06:50 -33.84457 151.32455 26656 ft 445 kts 54°
2026-04-20 06:50 -33.82501 151.35250 26189 ft 441 kts 54°
2026-04-20 06:50 -33.80537 151.38066 25707 ft 438 kts 54°
2026-04-20 06:50 -33.78587 151.40855 25242 ft 434 kts 54°
2026-04-20 06:51 -33.76649 151.43622 24780 ft 431 kts 54°
2026-04-20 06:51 -33.74726 151.46364 24337 ft 428 kts 53°
2026-04-20 06:51 -33.72814 151.49088 23906 ft 425 kts 53°
2026-04-20 06:51 -33.70917 151.51787 23427 ft 422 kts 53°
2026-04-20 06:52 -33.69032 151.54468 22934 ft 418 kts 53°
2026-04-20 06:52 -33.67146 151.57110 22459 ft 416 kts 50°
2026-04-20 06:52 -33.65000 151.59360 21992 ft 416 kts 37°
2026-04-20 06:52 -33.62469 151.61038 21527 ft 415 kts 23°
2026-04-20 06:53 -33.59722 151.62070 21058 ft 413 kts 14°
2026-04-20 06:53 -33.56949 151.62911 20585 ft 410 kts 14°
2026-04-20 06:53 -33.54198 151.63744 20163 ft 406 kts 14°
2026-04-20 06:53 -33.51465 151.64569 19668 ft 404 kts 14°
2026-04-20 06:54 -33.48751 151.65387 19207 ft 401 kts 14°
2026-04-20 06:54 -33.46055 151.66200 18753 ft 398 kts 14°
2026-04-20 06:54 -33.43417 151.66997 18287 ft 395 kts 14°
2026-04-20 06:54 -33.40765 151.67812 17787 ft 392 kts 15°
2026-04-20 06:55 -33.38136 151.68636 17288 ft 389 kts 15°
2026-04-20 06:55 -33.35527 151.69455 16813 ft 386 kts 15°
2026-04-20 06:55 -33.32938 151.70265 16332 ft 383 kts 15°
2026-04-20 06:55 -33.30365 151.71067 15860 ft 381 kts 15°
2026-04-20 06:56 -33.27812 151.71860 15401 ft 378 kts 15°
2026-04-20 06:56 -33.25273 151.72648 14945 ft 376 kts 15°
2026-04-20 06:56 -33.22720 151.73248 14501 ft 373 kts
2026-04-20 06:56 -33.20176 151.73138 14078 ft 370 kts 349°
2026-04-20 06:57 -33.17723 151.72285 13593 ft 366 kts 334°
2026-04-20 06:57 -33.15461 151.70947 13179 ft 361 kts 331°
2026-04-20 06:57 -33.13217 151.69603 12676 ft 360 kts 331°
2026-04-20 06:57 -33.10977 151.68274 12228 ft 358 kts 331°
2026-04-20 06:58 -33.08754 151.66959 11803 ft 356 kts 331°
2026-04-20 06:58 -33.06546 151.65654 11425 ft 352 kts 331°
2026-04-20 06:58 -33.04359 151.64357 10986 ft 350 kts 331°
2026-04-20 06:58 -33.02212 151.63085 10579 ft 349 kts 331°
2026-04-20 06:59 -33.00066 151.61817 10408 ft 338 kts 332°
2026-04-20 06:59 -32.97992 151.60595 10288 ft 327 kts 332°
2026-04-20 06:59 -32.95994 151.59416 9891 ft 316 kts 331°
2026-04-20 06:59 -32.94037 151.58257 9276 ft 312 kts 331°
2026-04-20 07:00 -32.92124 151.57127 8999 ft 303 kts 331°
2026-04-20 07:00 -32.90173 151.56165 8284 ft 306 kts 343°
2026-04-20 07:00 -32.88080 151.55685 7666 ft 306 kts 351°
2026-04-20 07:00 -32.86001 151.55282 7270 ft 301 kts 350°
2026-04-20 07:01 -32.83970 151.54882 6928 ft 299 kts 350°
2026-04-20 07:01 -32.81930 151.54478 6579 ft 297 kts 350°
2026-04-20 07:01 -32.79904 151.54074 6224 ft 294 kts 349°
2026-04-20 07:01 -32.77916 151.53691 5886 ft 284 kts 354°
2026-04-20 07:02 -32.75994 151.53783 5575 ft 271 kts 13°
2026-04-20 07:02 -32.74268 151.54536 5266 ft 259 kts 32°
2026-04-20 07:02 -32.72854 151.55766 4967 ft 247 kts 43°
2026-04-20 07:02 -32.71717 151.57216 4664 ft 234 kts 60°
2026-04-20 07:03 -32.71017 151.58889 4392 ft 220 kts 77°
2026-04-20 07:03 -32.70538 151.60572 4163 ft 211 kts 76°
2026-04-20 07:03 -32.70074 151.62176 3925 ft 206 kts 76°
2026-04-20 07:03 -32.69612 151.63757 3724 ft 199 kts 76°
2026-04-20 07:04 -32.69161 151.65293 3474 ft 195 kts 77°
2026-04-20 07:04 -32.68823 151.66792 3237 ft 180 kts 91°
2026-04-20 07:04 -32.68948 151.68187 3046 ft 163 kts 114°
2026-04-20 07:04 -32.69431 151.69317 3006 ft 148 kts 132°
2026-04-20 07:05 -32.70083 151.70228 2977 ft 142 kts 135°
2026-04-20 07:05 -32.70715 151.71112 2706 ft 141 kts 136°
2026-04-20 07:05 -32.71333 151.71977 2380 ft 137 kts 137°
2026-04-20 07:05 -32.71942 151.72826 2149 ft 134 kts 136°
2026-04-20 07:06 -32.72546 151.73666 1941 ft 133 kts 136°
2026-04-20 07:06 -32.73145 151.74500 1751 ft 133 kts 136°
2026-04-20 07:06 -32.73744 151.75333 1566 ft 133 kts 135°
2026-04-20 07:06 -32.74342 151.76166 1386 ft 132 kts 136°
2026-04-20 07:07 -32.74940 151.76999 1208 ft 133 kts 136°
2026-04-20 07:07 -32.75535 151.77829 1032 ft 132 kts 137°
2026-04-20 07:07 -32.76131 151.78659 854 ft 133 kts 137°
2026-04-20 07:07 -32.76721 151.79481 684 ft 132 kts 136°
2026-04-20 07:08 -32.77312 151.80304 510 ft 131 kts 138°
2026-04-20 07:08 -32.77896 151.81134 325 ft 132 kts 136°
2026-04-20 07:08 -32.78497 151.81966 124 ft 133 kts 133°
2026-04-20 07:08 -32.79078 151.82773 38 ft 116 kts 133°
2026-04-20 07:09 -32.79502 151.83359 32 ft 69 kts 130°
2026-04-20 07:09 -32.79715 151.83670 31 ft 35 kts 128°
2026-04-20 07:09 -32.79869 151.83849 31 ft 26 kts 153°
2026-04-20 07:09 -32.80035 151.83833 30 ft 24 kts 192°
2026-04-20 07:10 -32.80190 151.83857 30 ft 23 kts 133°
2026-04-20 07:10 -32.80295 151.84003 29 ft 24 kts 135°
2026-04-20 07:10 -32.80391 151.84131 28 ft 18 kts 126°
2026-04-20 07:10 -32.80429 151.84129 28 ft 3 kts 276°
2026-04-20 07:11 -32.80411 151.84094 28 ft 7 kts 303°
2026-04-20 07:11 -32.80406 151.84060 28 ft 0 kts 272°